When you browse on this site, cookies collect data to enhance your experience and personalize the content and advertising you see.
Visit our Privacy Policy to learn more. By continuing to use the site, you agree to this use of cookies and data.
  • Em Portugal
  • Lista de países
  • Para 7 dias
  • Temperatura da água
  • Mapas de satélite
  • Mapa do tempo
  • Widgets de tempo
  • user-avatar
    Iniciar Sessão

    Previsão horária em Lisboa

    Hoje, 26 Março, Terça-feira

    Tempo Temperatura Precipitação Vento Pressão Humidade
    00:00 +16°C° 0 mm 5 m/s 756 mmHg 39%
    01:00 +15°C° 0 mm 5 m/s 756 mmHg 37%
    02:00 +15°C° 0 mm 5 m/s 756 mmHg 36%
    03:00 +14°C° 0 mm 6 m/s 755 mmHg 36%
    04:00 +14°C° 0 mm 6 m/s 755 mmHg 36%
    05:00 +14°C° 0 mm 6 m/s 755 mmHg 37%
    06:00 +14°C° 0 mm 6 m/s 755 mmHg 35%
    07:00 +15°C° 0 mm 7 m/s 755 mmHg 34%
    08:00 +16°C° 0 mm 7 m/s 755 mmHg 32%
    09:00 +18°C° 0 mm 7 m/s 755 mmHg 31%
    10:00 +21°C° 0 mm 7 m/s 755 mmHg 30%
    11:00 +23°C° 0 mm 7 m/s 755 mmHg 28%
    12:00 +24°C° 0 mm 6 m/s 755 mmHg 28%
    13:00 +26°C° 0 mm 6 m/s 755 mmHg 27%
    14:00 +27°C° 0 mm 6 m/s 754 mmHg 26%
    15:00 +26°C° 0 mm 5 m/s 754 mmHg 29%
    16:00 +26°C° 0 mm 4 m/s 755 mmHg 31%
    17:00 +25°C° 0 mm 4 m/s 755 mmHg 33%
    18:00 +23°C° 0 mm 4 m/s 755 mmHg 36%
    19:00 +21°C° 0 mm 4 m/s 755 mmHg 39%
    20:00 +20°C° 0 mm 5 m/s 756 mmHg 43%
    21:00 +19°C° 0 mm 4 m/s 756 mmHg 45%
    22:00 +18°C° 0 mm 4 m/s 757 mmHg 48%
    23:00 +17°C° 0 mm 4 m/s 757 mmHg 51%

    Amanhã, 27 Março, Quarta-feira

    Tempo Temperatura Precipitação Vento Pressão Humidade
    00:00 +17°C° 0 mm 3 m/s 757 mmHg 57%
    01:00 +16°C° 0 mm 3 m/s 758 mmHg 63%
    02:00 +15°C° 0 mm 2 m/s 758 mmHg 69%
    03:00 +14°C° 0 mm 3 m/s 758 mmHg 63%
    04:00 +13°C° 0 mm 4 m/s 759 mmHg 56%
    05:00 +13°C° 0 mm 5 m/s 759 mmHg 50%
    06:00 +14°C° 0 mm 6 m/s 760 mmHg 46%
    07:00 +14°C° 0 mm 6 m/s 760 mmHg 42%
    08:00 +15°C° 0 mm 7 m/s 761 mmHg 37%
    09:00 +17°C° 0 mm 6 m/s 761 mmHg 36%
    10:00 +20°C° 0 mm 6 m/s 761 mmHg 35%
    11:00 +21°C° 0 mm 5 m/s 762 mmHg 34%
    12:00 +22°C° 0 mm 5 m/s 761 mmHg 31%
    13:00 +23°C° 0 mm 4 m/s 761 mmHg 28%
    14:00 +25°C° 0 mm 4 m/s 761 mmHg 25%
    15:00 +23°C° 0 mm 4 m/s 761 mmHg 27%
    16:00 +23°C° 0 mm 4 m/s 761 mmHg 28%
    17:00 +22°C° 0 mm 4 m/s 761 mmHg 30%
    18:00 +20°C° 0 mm 4 m/s 762 mmHg 34%
    19:00 +19°C° 0 mm 4 m/s 762 mmHg 38%
    20:00 +17°C° 0 mm 4 m/s 763 mmHg 42%
    21:00 +15°C° 0 mm 4 m/s 763 mmHg 43%
    22:00 +14°C° 0 mm 4 m/s 763 mmHg 44%
    23:00 +14°C° 0 mm 4 m/s 763 mmHg 45%

    Depois de amanhã, 28 Março, Quinta-feira

    Tempo Temperatura Precipitação Vento Pressão Humidade
    00:00 +13°C° 0 mm 3 m/s 763 mmHg 52%
    01:00 +12°C° 0 mm 3 m/s 763 mmHg 58%
    02:00 +12°C° 0 mm 2 m/s 763 mmHg 64%
    03:00 +12°C° 0 mm 2 m/s 763 mmHg 68%
    04:00 +10°C° 0 mm 2 m/s 763 mmHg 71%
    05:00 +10°C° 0 mm 2 m/s 763 mmHg 75%
    06:00 +12°C° 0 mm 2 m/s 764 mmHg 68%
    07:00 +13°C° 0 mm 3 m/s 764 mmHg 61%
    08:00 +14°C° 0 mm 3 m/s 764 mmHg 55%
    09:00 +17°C° 0 mm 3 m/s 764 mmHg 46%
    10:00 +19°C° 0 mm 4 m/s 764 mmHg 37%
    11:00 +21°C° 0 mm 4 m/s 764 mmHg 29%
    12:00 +22°C° 0 mm 4 m/s 763 mmHg 27%
    13:00 +24°C° 0 mm 3 m/s 763 mmHg 25%
    14:00 +25°C° 0 mm 3 m/s 762 mmHg 24%
    15:00 +24°C° 0 mm 3 m/s 762 mmHg 26%
    16:00 +22°C° 0 mm 3 m/s 762 mmHg 28%
    17:00 +21°C° 0 mm 3 m/s 762 mmHg 30%
    18:00 +20°C° 0 mm 3 m/s 762 mmHg 32%
    19:00 +18°C° 0 mm 3 m/s 762 mmHg 34%
    20:00 +17°C° 0 mm 3 m/s 763 mmHg 35%
    21:00 +16°C° 0 mm 3 m/s 763 mmHg 39%
    22:00 +14°C° 0 mm 3 m/s 763 mmHg 42%
    23:00 +14°C° 0 mm 2 m/s 762 mmHg 46%

    29 Março, Sexta-feira

    Tempo Temperatura Precipitação Vento Pressão Humidade
    00:00 +13°C° 0 mm 3 m/s 762 mmHg 48%
    01:00 +12°C° 0 mm 3 m/s 762 mmHg 50%
    02:00 +12°C° 0 mm 3 m/s 761 mmHg 52%
    03:00 +11°C° 0 mm 3 m/s 761 mmHg 52%
    04:00 +10°C° 0 mm 3 m/s 761 mmHg 52%
    05:00 +10°C° 0 mm 3 m/s 761 mmHg 52%
    06:00 +11°C° 0 mm 3 m/s 761 mmHg 49%
    07:00 +12°C° 0 mm 4 m/s 762 mmHg 46%
    08:00 +14°C° 0 mm 4 m/s 762 mmHg 43%
    09:00 +17°C° 0 mm 3 m/s 762 mmHg 40%
    10:00 +19°C° 0 mm 3 m/s 761 mmHg 37%
    11:00 +21°C° 0 mm 3 m/s 761 mmHg 34%
    12:00 +23°C° 0 mm 2 m/s 761 mmHg 33%
    13:00 +24°C° 0 mm 2 m/s 760 mmHg 31%
    14:00 +24°C° 0 mm 2 m/s 760 mmHg 30%
    15:00 +23°C° 0 mm 2 m/s 759 mmHg 34%
    16:00 +21°C° 0 mm 2 m/s 759 mmHg 38%
    17:00 +21°C° 0 mm 2 m/s 759 mmHg 42%
    18:00 +19°C° 0 mm 3 m/s 759 mmHg 46%
    19:00 +17°C° 0 mm 3 m/s 760 mmHg 51%
    20:00 +16°C° 0 mm 3 m/s 760 mmHg 56%
    21:00 +14°C° 0 mm 3 m/s 760 mmHg 56%
    22:00 +15°C° 0 mm 2 m/s 760 mmHg 55%
    23:00 +14°C° 0 mm 2 m/s 759 mmHg 55%

    30 Março, Sábado

    Tempo Temperatura Precipitação Vento Pressão Humidade
    00:00 +14°C° 0 mm 2 m/s 759 mmHg 54%
    01:00 +12°C° 0 mm 3 m/s 758 mmHg 54%
    02:00 +12°C° 0 mm 3 m/s 758 mmHg 54%
    03:00 +11°C° 0 mm 3 m/s 758 mmHg 57%
    04:00 +11°C° 0 mm 3 m/s 758 mmHg 60%
    05:00 +10°C° 0 mm 3 m/s 758 mmHg 63%
    06:00 +12°C° 0 mm 3 m/s 758 mmHg 61%
    07:00 +13°C° 0 mm 4 m/s 758 mmHg 58%
    08:00 +14°C° 0 mm 4 m/s 758 mmHg 56%
    09:00 +18°C° 0 mm 4 m/s 758 mmHg 50%
    10:00 +20°C° 0 mm 4 m/s 758 mmHg 44%
    11:00 +22°C° 0 mm 3 m/s 758 mmHg 39%
    12:00 +24°C° 0 mm 3 m/s 757 mmHg 37%
    13:00 +25°C° 0 mm 3 m/s 756 mmHg 35%
    14:00 +25°C° 0 mm 3 m/s 756 mmHg 33%
    15:00 +25°C° 0 mm 3 m/s 756 mmHg 36%
    16:00 +24°C° 0 mm 3 m/s 756 mmHg 38%
    17:00 +22°C° 0 mm 3 m/s 756 mmHg 41%
    18:00 +21°C° 0 mm 4 m/s 756 mmHg 44%
    19:00 +19°C° 0 mm 4 m/s 756 mmHg 47%
    20:00 +18°C° 0 mm 4 m/s 757 mmHg 50%
    21:00 +17°C° 0 mm 4 m/s 756 mmHg 51%
    22:00 +15°C° 0 mm 4 m/s 756 mmHg 52%
    23:00 +15°C° 0 mm 4 m/s 756 mmHg 53%

    31 Março, Domingo

    Tempo Temperatura Precipitação Vento Pressão Humidade
    00:00 +14°C° 0 mm 4 m/s 755 mmHg 53%
    01:00 +14°C° 0 mm 4 m/s 755 mmHg 53%
    02:00 +13°C° 0 mm 4 m/s 755 mmHg 53%
    03:00 +13°C° 0 mm 4 m/s 755 mmHg 56%
    04:00 +13°C° 0 mm 4 m/s 755 mmHg 59%
    05:00 +12°C° 0 mm 4 m/s 755 mmHg 62%
    06:00 +13°C° 0 mm 4 m/s 755 mmHg 60%
    07:00 +15°C° 0 mm 4 m/s 755 mmHg 57%
    08:00 +16°C° 0 mm 5 m/s 755 mmHg 54%
    09:00 +19°C° 0 mm 4 m/s 755 mmHg 49%
    10:00 +21°C° 0 mm 3 m/s 755 mmHg 43%
    11:00 +24°C° 0 mm 3 m/s 756 mmHg 38%
    12:00 +25°C° 0 mm 3 m/s 755 mmHg 36%
    13:00 +25°C° 0 mm 3 m/s 755 mmHg 34%
    14:00 +26°C° 0 mm 3 m/s 755 mmHg 32%
    15:00 +25°C° 0 mm 4 m/s 755 mmHg 35%
    16:00 +23°C° 0 mm 4 m/s 755 mmHg 38%
    17:00 +22°C° 0 mm 4 m/s 755 mmHg 41%
    18:00 +20°C° 0 mm 4 m/s 755 mmHg 44%
    19:00 +18°C° 0 mm 4 m/s 756 mmHg 48%
    20:00 +17°C° 0 mm 4 m/s 756 mmHg 52%
    21:00 +16°C° 0 mm 3 m/s 756 mmHg 54%
    22:00 +14°C° 0 mm 3 m/s 756 mmHg 56%
    23:00 +15°C° 0 mm 2 m/s 756 mmHg 58%
    Mostrar mais